Birchwood, AK

4:48 PM AKDT on September 23, 2017 (GMT -0800)
Birchwood

Weather History for PABV - November, 2012

Change the Weather History Date:

Saturday, November 10, 2012

  Actual Average Record
Temperature  
Mean Temperature 26 °F -  
Max Temperature 30 °F 26 °F 55 °F (2014)
Min Temperature 23 °F 17 °F -11 °F (1989)
Degree Days  
Heating Degree Days 38    
Moisture  
Dew Point 27 °F    
Average Humidity 98    
Maximum Humidity 100    
Minimum Humidity 93    
Precipitation  
Precipitation 0.00 in - - ()
Sea Level Pressure  
Sea Level Pressure 29.63 in    
Wind  
Wind Speed 1 mph (South)    
Max Wind Speed 5 mph    
Max Gust Speed -    
Visibility 10 miles    
Events      
Averages and records for this station are not official NWS values.
T = Trace of Precipitation, MM = Missing Value Source: NWS Daily Summary

Daily Weather History Graph

Daily Weather History Graph

Search for Another Location

Airport or City:

Trip Planner

Search our weather history database for the weather conditions in past years. The results will help you decide how hot, cold, wet, or windy it might be!

Date:

Astronomy

Nov. 10, 2012 Rise Set
Actual Time 8:53 AM AKST 4:29 PM AKST
Civil Twilight 8:02 AM AKST 5:20 PM AKST
Nautical Twilight 7:09 AM AKST 6:13 PM AKST
Astronomical Twilight 6:18 AM AKST 7:04 PM AKST
Moon 4:14 AM AKST (11/10) 3:08 PM AKST (11/10)
Length of Visible Light 9h 17m
Length of Day
7h 35m
Waning Crescent, 13% of the Moon is Illuminated
Nov 10
Waning Crescent
Nov 13
New
Nov 20
First Quarter
Nov 28
Full
Dec 6
Last Quarter

Hourly Weather History & Observations

Time (AKST) Temp. Windchill Dew Point Humidity Pressure Visibility Wind Dir Wind Speed Gust Speed Precip Events Conditions
12:16 AM 28.4 °F 23.3 °F 28.4 °F 100% 29.77 in 10.0 mi SSW 4.6 mph - N/A   Overcast
12:36 AM 28.4 °F 23.3 °F 28.4 °F 100% 29.76 in 10.0 mi South 4.6 mph - N/A   Overcast
12:56 AM 28.4 °F - 28.4 °F 100% 29.76 in 10.0 mi Calm Calm - N/A   Overcast
1:16 AM 28.4 °F 24.6 °F 28.4 °F 100% 29.76 in 10.0 mi SSW 3.5 mph - N/A   Overcast
1:36 AM 28.4 °F - 28.4 °F 100% 29.75 in 10.0 mi Calm Calm - N/A   Overcast
1:56 AM 28.4 °F - 28.4 °F 100% 29.75 in 10.0 mi Calm Calm - N/A   Overcast
2:16 AM 28.4 °F - 28.4 °F 100% 29.74 in 10.0 mi Calm Calm - N/A   Overcast
2:36 AM 28.4 °F - 28.4 °F 100% 29.73 in 10.0 mi Calm Calm - N/A   Overcast
2:56 AM 28.4 °F - 28.4 °F 100% 29.73 in 10.0 mi Calm Calm - N/A   Overcast
3:16 AM 28.4 °F - 28.4 °F 100% 29.72 in 10.0 mi Calm Calm - N/A   Overcast
3:36 AM 28.4 °F - 28.4 °F 100% 29.72 in 10.0 mi Calm Calm - N/A   Overcast
3:56 AM 28.4 °F - 28.4 °F 100% 29.71 in 10.0 mi Calm Calm - N/A   Overcast
4:16 AM 28.4 °F - 26.6 °F 93% 29.70 in 10.0 mi Calm Calm - N/A   Overcast
4:36 AM 28.4 °F - 28.4 °F 100% 29.70 in 10.0 mi Calm Calm - N/A   Overcast
4:56 AM 28.4 °F - 28.4 °F 100% 29.69 in 10.0 mi Calm Calm - N/A   Overcast
5:16 AM 28.4 °F - 28.4 °F 100% 29.69 in 10.0 mi Calm Calm - N/A   Overcast
5:36 AM 28.4 °F - 28.4 °F 100% 29.69 in 10.0 mi Calm Calm - N/A   Overcast
5:56 AM 28.4 °F 24.6 °F 28.4 °F 100% 29.68 in 10.0 mi SSW 3.5 mph - N/A   Overcast
6:36 AM 28.4 °F - 26.6 °F 93% 29.67 in 10.0 mi Calm Calm - N/A   Overcast
6:56 AM 26.6 °F - 26.6 °F 100% 29.66 in 10.0 mi Calm Calm - N/A   Overcast
7:16 AM 26.6 °F - 26.6 °F 100% 29.66 in 10.0 mi Calm Calm - N/A   Overcast
7:36 AM 26.6 °F - 26.6 °F 100% 29.66 in 10.0 mi Calm Calm - N/A   Overcast
7:56 AM 26.6 °F 22.6 °F 26.6 °F 100% 29.65 in 10.0 mi SSW 3.5 mph - N/A   Overcast
8:16 AM 26.6 °F - 26.6 °F 100% 29.65 in 10.0 mi Calm Calm - N/A   Overcast
8:36 AM 26.6 °F - 24.8 °F 93% 29.65 in 10.0 mi Calm Calm - N/A   Mostly Cloudy
8:56 AM 26.6 °F - 26.6 °F 100% 29.65 in 10.0 mi Calm Calm - N/A   Partly Cloudy
9:16 AM 26.6 °F - 26.6 °F 100% 29.64 in 10.0 mi Calm Calm - N/A   Mostly Cloudy
9:36 AM 26.6 °F - 26.6 °F 100% 29.64 in 10.0 mi Calm Calm - N/A   Overcast
9:56 AM 26.6 °F - 26.6 °F 100% 29.63 in 10.0 mi Calm Calm - N/A   Overcast
10:16 AM 26.6 °F - 26.6 °F 100% 29.63 in 10.0 mi Calm Calm - N/A   Scattered Clouds
10:36 AM 26.6 °F - 24.8 °F 93% 29.63 in 10.0 mi Calm Calm - N/A   Clear
10:56 AM 26.6 °F - 26.6 °F 100% 29.63 in 10.0 mi Calm Calm - N/A   Clear
11:16 AM 26.6 °F - 26.6 °F 100% 29.62 in 10.0 mi Calm Calm - N/A   Mostly Cloudy
11:36 AM 28.4 °F - 28.4 °F 100% 29.62 in 10.0 mi Calm Calm - N/A   Scattered Clouds
11:56 AM 28.4 °F - 28.4 °F 100% 29.61 in 10.0 mi Calm Calm - N/A   Mostly Cloudy
12:16 PM 30.2 °F - 28.4 °F 93% 29.61 in 10.0 mi Calm Calm - N/A   Overcast
12:36 PM 30.2 °F - 28.4 °F 93% 29.61 in 10.0 mi Calm Calm - N/A   Scattered Clouds
12:56 PM 30.2 °F - 28.4 °F 93% 29.61 in 10.0 mi Calm Calm - N/A   Clear
1:16 PM 30.2 °F - 28.4 °F 93% 29.61 in 10.0 mi Calm Calm - N/A   Mostly Cloudy
1:36 PM 30.2 °F - 28.4 °F 93% 29.60 in 10.0 mi Calm Calm - N/A   Overcast
1:56 PM 30.2 °F - 28.4 °F 93% 29.60 in 10.0 mi Calm Calm - N/A   Overcast
2:16 PM 30.2 °F - 28.4 °F 93% 29.60 in 10.0 mi Calm Calm - N/A   Mostly Cloudy
2:36 PM 30.2 °F - 28.4 °F 93% 29.59 in 10.0 mi Calm Calm - N/A   Scattered Clouds
2:56 PM 30.2 °F - 30.2 °F 100% 29.59 in 10.0 mi Calm Calm - N/A   Clear
3:16 PM 30.2 °F - 28.4 °F 93% 29.58 in 10.0 mi Calm Calm - N/A   Scattered Clouds
3:36 PM 30.2 °F - 28.4 °F 93% 29.58 in 10.0 mi Calm Calm - N/A   Partly Cloudy
3:56 PM 30.2 °F - 28.4 °F 93% 29.58 in 10.0 mi Calm Calm - N/A   Scattered Clouds
4:16 PM 30.2 °F - 28.4 °F 93% 29.58 in 10.0 mi Calm Calm - N/A   Scattered Clouds
4:36 PM 30.2 °F - 28.4 °F 93% 29.57 in 10.0 mi Calm Calm - N/A   Mostly Cloudy
4:56 PM 28.4 °F - 26.6 °F 93% 29.57 in 10.0 mi Calm Calm - N/A   Mostly Cloudy
5:16 PM 28.4 °F - 28.4 °F 100% 29.57 in 10.0 mi Calm Calm - N/A   Mostly Cloudy
5:36 PM 28.4 °F - 28.4 °F 100% 29.57 in 10.0 mi Calm Calm - N/A   Overcast
5:56 PM 28.4 °F - 28.4 °F 100% 29.57 in 10.0 mi Calm Calm - N/A   Overcast
6:16 PM 28.4 °F - 28.4 °F 100% 29.57 in 10.0 mi Calm Calm - N/A   Overcast
6:36 PM 28.4 °F - 28.4 °F 100% 29.57 in 10.0 mi Calm Calm - N/A   Overcast
7:16 PM 28.4 °F - 28.4 °F 100% 29.57 in 10.0 mi Calm Calm - N/A   Mostly Cloudy
7:36 PM 28.4 °F - 28.4 °F 100% 29.57 in 10.0 mi Calm Calm - N/A   Partly Cloudy
7:56 PM 26.6 °F - 26.6 °F 100% 29.57 in 10.0 mi Calm Calm - N/A   Clear
8:16 PM 26.6 °F - 26.6 °F 100% 29.57 in 10.0 mi Calm Calm - N/A   Clear
8:36 PM 24.8 °F 20.5 °F 24.8 °F 100% 29.57 in 10.0 mi SSE 3.5 mph - N/A   Clear
8:56 PM 24.8 °F - 24.8 °F 100% 29.57 in 10.0 mi Calm Calm - N/A   Clear
9:16 PM 24.8 °F - 24.8 °F 100% 29.58 in 9.0 mi Calm Calm - N/A   Clear
9:36 PM 24.8 °F - 24.8 °F 100% 29.58 in 10.0 mi Calm Calm - N/A   Clear
9:56 PM 24.8 °F 20.5 °F 24.8 °F 100% 29.58 in 10.0 mi SE 3.5 mph - N/A   Clear
10:16 PM 24.8 °F 20.5 °F 24.8 °F 100% 29.58 in 9.0 mi SE 3.5 mph - N/A   Clear
10:36 PM 23.0 °F 18.4 °F 23.0 °F 100% 29.58 in 10.0 mi SSE 3.5 mph - N/A   Clear
10:56 PM 24.8 °F - 23.0 °F 93% 29.59 in 10.0 mi Calm Calm - N/A   Clear
11:16 PM 23.0 °F - 21.2 °F 93% 29.59 in 10.0 mi Calm Calm - N/A   Clear
11:36 PM 23.0 °F - 23.0 °F 100% 29.59 in 10.0 mi Calm Calm - N/A   Mostly Cloudy
11:56 PM 24.8 °F 19.1 °F 24.8 °F 100% 29.59 in 10.0 mi SE 4.6 mph - N/A   Overcast